Change the Weather History Date:

Friday, April 11, 2014

  Actual Average (LHBP) Record (LHBP)
Temperature  
Mean Temperature 48 °F -  
Max Temperature 61 °F 57 °F 75 °F (2009)
Min Temperature 36 °F 38 °F 32 °F (2013)
Degree Days  
Heating Degree Days 16    
Moisture  
Dew Point 36 °F    
Average Humidity 62    
Maximum Humidity 100    
Minimum Humidity 23    
Precipitation  
Precipitation 0.00 in - - ()
Sea Level Pressure  
Sea Level Pressure 30.05 in    
Wind  
Wind Speed 6 mph ()    
Max Wind Speed 11 mph    
Max Gust Speed -    
Visibility 7.8 miles    
Events Rain    
Averages and records for this station are not official NWS values.
T = Trace of Precipitation, MM = Missing Value Source: Averaged Metar Reports

Daily Weather History Graph

Daily Weather History Graph

Search for Another Location

Airport or City:

Trip Planner

Search our weather history database for the weather conditions in past years. The results will help you decide how hot, cold, wet, or windy it might be!

Date:

Astronomy

Apr. 11, 2014 Rise Set
Actual Time 6:01 AM CEST 7:23 PM CEST
Civil Twilight 5:29 AM CEST 7:55 PM CEST
Nautical Twilight 4:51 AM CEST 8:33 PM CEST
Astronomical Twilight 4:11 AM CEST 9:14 PM CEST
Moon 3:33 PM CEST (4/11) 4:01 AM CEST (4/11)
Length of Visible Light 14h 25m
Length of Day
13h 22m
Waxing Gibbous, 85% of the Moon is Illuminated
Apr 11
Waxing Gibbous
Apr 15
Full
Apr 22
Last Quarter
Apr 29
New
May 7
First Quarter

Hourly Weather History & Observations

Time (CEST) Temp. Windchill Dew Point Humidity Pressure Visibility Wind Dir Wind Speed Gust Speed Precip Events Conditions
12:00 AM 44 °F - 40 °F 83% 30.02 in 19 mi North 6.7 mph - - Rain Light Rain
12:00 AM - - - N/A% - 6.2 mi North 8.9 mph - N/A   Overcast
12:15 AM 44.6 °F 42.3 °F 41.0 °F 87% 30.01 in 6.2 mi North 4.5 mph - N/A   Overcast
12:45 AM 44.6 °F 38.9 °F 42.8 °F 93% 30.01 in 6.2 mi North 11.2 mph - N/A   Overcast
1:00 AM 45 °F - 42 °F 86% 30.03 in 9 mi North 11.2 mph - -   Partly Cloudy
1:15 AM 44.6 °F 39.8 °F 42.8 °F 93% 30.01 in 6.2 mi NNE 8.9 mph - N/A   Mostly Cloudy
1:45 AM 44.6 °F 40.8 °F 42.8 °F 93% 30.01 in 6.2 mi NNE 6.7 mph - N/A   Mostly Cloudy
2:00 AM 44 °F - 42 °F 91% 30.03 in 6 mi NNE 6.7 mph - -   Partly Cloudy
2:15 AM 44.6 °F 40.8 °F 41.0 °F 87% 30.01 in 6.2 mi North 6.7 mph - N/A   Mostly Cloudy
2:45 AM 42.8 °F 40.2 °F 39.2 °F 87% 30.01 in 6.2 mi North 4.5 mph - N/A   Scattered Clouds
3:00 AM 42 °F - 40 °F 88% 30.04 in 6 mi North 4.5 mph - -   Scattered Clouds
3:15 AM 39.2 °F 36.0 °F 35.6 °F 87% 30.01 in 5.0 mi NNW 4.5 mph - N/A   Unknown
3:45 AM - - - N/A% - 3.1 mi NNW 4.5 mph - N/A   Mist
4:00 AM 39 °F - 37 °F 92% 30.04 in 5 mi NNW 6.7 mph - -  
4:15 AM 39.2 °F 36.0 °F 37.4 °F 93% 30.01 in 5.0 mi NW 4.5 mph - N/A   Unknown
4:45 AM 37.4 °F 32.2 °F 35.6 °F 93% 30.04 in 5.0 mi NW 6.7 mph - N/A   Unknown
5:00 AM 37 °F - 36 °F 92% 30.05 in 5 mi NW 6.7 mph - -  
5:15 AM 37.4 °F 32.2 °F 37.4 °F 100% 30.04 in 5.0 mi NW 6.7 mph - N/A   Unknown
6:00 AM 38 °F - 36 °F 88% 30.06 in 6 mi NNW 4.5 mph - -   Scattered Clouds
6:15 AM 37.4 °F 33.9 °F 35.6 °F 93% 30.04 in - NNW 4.5 mph - N/A   Clear
6:45 AM - - - N/A% - 6.2 mi North 8.9 mph - N/A   Clear
7:00 AM 36 °F - 34 °F 88% 30.08 in 6 mi NW 6.7 mph - -   Scattered Clouds
7:15 AM 39.2 °F 34.4 °F 37.4 °F 93% 30.06 in - NNW 6.7 mph - N/A   Clear
7:45 AM 44.6 °F 40.8 °F 39.2 °F 81% 30.06 in - NNW 6.7 mph - N/A   Clear
8:00 AM 44 °F - 38 °F 74% 30.08 in 12 mi NNW 6.7 mph - -   Scattered Clouds
8:15 AM 46.4 °F 43.0 °F 39.2 °F 76% 30.06 in - North 6.7 mph - N/A   Clear
8:45 AM 48.2 °F - 37.4 °F 66% 30.06 in - North 8.9 mph - N/A   Clear
9:00 AM 48 °F - 38 °F 57% 30.09 in 19 mi North 8.9 mph - -   Scattered Clouds
9:15 AM 50.0 °F - 37.4 °F 62% 30.06 in - NNE 11.2 mph - N/A   Clear
9:45 AM - - - N/A% - 6.2 mi North 8.9 mph - N/A   Clear
10:00 AM 51 °F - 37 °F 48% 30.09 in 22 mi NNE 11.2 mph - -   Clear
10:15 AM 53.6 °F - 37.4 °F 54% 30.09 in 6.2 mi NNE 8.9 mph - N/A   Partly Cloudy
10:45 AM 53.6 °F - 39.2 °F 58% 30.06 in 6.2 mi NNE 8.9 mph - N/A   Partly Cloudy
11:00 AM 54 °F - 38 °F 44% 30.10 in 22 mi NNE 8.9 mph - -   Scattered Clouds
11:15 AM 55.4 °F - 35.6 °F 47% 30.06 in 6.2 mi NNE 8.9 mph - N/A   Scattered Clouds
11:45 AM 55.4 °F - 33.8 °F 44% 30.06 in 6.2 mi NNE 8.9 mph - N/A   Mostly Cloudy
12:00 PM 56 °F - 35 °F 32% 30.08 in 22 mi NNE 8.9 mph - -   Mostly Cloudy
12:15 PM 55.4 °F - 33.8 °F 44% 30.06 in - North 8.9 mph - N/A   Clear
12:45 PM - - - N/A% - - North 8.9 mph - N/A   Clear
1:00 PM 58 °F - 35 °F 29% 30.08 in 22 mi NNE 8.9 mph - -   Mostly Cloudy
1:15 PM 57.2 °F - 32.0 °F 38% 30.06 in - NNE 8.9 mph - N/A   Clear
1:45 PM 57.2 °F - 32.0 °F 38% 30.06 in - North 8.9 mph - N/A   Clear
2:00 PM 56 °F - 32 °F 28% 30.07 in 22 mi North 8.9 mph - -   Mostly Cloudy
2:15 PM 57.2 °F - 32.0 °F 38% 30.04 in - NE 6.7 mph - N/A   Clear
2:45 PM 59.0 °F - 32.0 °F 36% 30.04 in - NNE 6.7 mph - N/A   Clear
3:00 PM 58 °F - 32 °F 26% 30.04 in 25 mi NNE 6.7 mph - -   Mostly Cloudy
3:15 PM 57.2 °F - 32.0 °F 38% 30.04 in - NW 4.5 mph - N/A   Clear
3:45 PM - - - N/A% - 3.7 mi North 6.7 mph - N/A Rain Light Rain
4:00 PM 58 °F - 30 °F 23% 30.03 in 25 mi NW 6.7 mph - -   Mostly Cloudy
4:15 PM 57.2 °F - 32.0 °F 38% 30.01 in - NW 8.9 mph - N/A   Clear
4:45 PM 57.2 °F - 30.2 °F 36% 30.01 in - North 4.5 mph - N/A   Clear
5:00 PM 58 °F - 31 °F 24% 30.03 in 19 mi North 4.5 mph - -   Mostly Cloudy
5:15 PM 57.2 °F - 30.2 °F 36% 30.01 in - NNE 2.2 mph - N/A   Clear
5:45 PM 57.2 °F - 30.2 °F 36% 30.01 in - NNE 2.2 mph - N/A   Clear
6:00 PM 57 °F - 31 °F 25% 30.03 in 25 mi NNE 2.2 mph - -   Mostly Cloudy
6:15 PM 57.2 °F - 32.0 °F 38% 30.01 in - Calm Calm - N/A   Clear
6:45 PM - - - N/A% - 5.0 mi NNE 4.5 mph - N/A Rain Light Rain
7:00 PM 55 °F - 35 °F 34% 30.03 in 25 mi East 2.2 mph - -   Partly Cloudy
7:15 PM 53.6 °F - 35.6 °F 51% 30.04 in - East 4.5 mph - N/A   Clear
7:45 PM 53.6 °F - 35.6 °F 51% 30.04 in - ESE 4.5 mph - N/A   Clear
8:00 PM 53 °F - 36 °F 41% 30.05 in 19 mi ESE 4.5 mph - -   Partly Cloudy
8:15 PM 51.8 °F - 37.4 °F 58% 30.04 in - East 4.5 mph - N/A   Clear
8:45 PM 51.8 °F - 41.0 °F 67% 30.04 in - East 8.9 mph - N/A   Clear
9:00 PM 51 °F - 40 °F 57% 30.06 in 12 mi East 8.9 mph - -   Mostly Cloudy
9:15 PM 50.0 °F - 41.0 °F 71% 30.06 in - East 6.7 mph - N/A   Clear
9:45 PM - - - N/A% - 3.1 mi ENE 6.7 mph - N/A   Clear
10:00 PM 49 °F - 40 °F 63% 30.08 in 12 mi East 6.7 mph - -   Scattered Clouds
10:15 PM 46.4 °F 44.4 °F 39.2 °F 76% 30.06 in - ENE 4.5 mph - N/A   Clear
10:45 PM 46.4 °F 44.4 °F 39.2 °F 76% 30.06 in - ENE 4.5 mph - N/A   Clear
11:00 PM 46 °F - 39 °F 67% 30.09 in 12 mi ENE 4.5 mph - -   Overcast
11:15 PM 46.4 °F 44.4 °F 37.4 °F 71% 30.06 in - East 4.5 mph - N/A   Clear
11:45 PM 46.4 °F - 37.4 °F 71% 30.06 in - ENE 2.2 mph - N/A   Clear